TimeMST,TemperatureF,Dew PointF,Humidity,Sea Level PressureIn,VisibilityMPH,Wind Direction,Wind SpeedMPH,Gust SpeedMPH,PrecipitationIn,Events,Conditions,WindDirDegrees,DateUTC
12:53 AM,48.0,1.9,15,29.38,5.0,NW,40.3,52.9,N/A,,Haze,310,2011-11-13 07:53:00
1:53 AM,44.1,6.1,21,29.41,10.0,NW,28.8,41.4,N/A,,Clear,320,2011-11-13 08:53:00
2:53 AM,42.1,7.0,24,29.45,10.0,NW,25.3,35.7,N/A,,Clear,320,2011-11-13 09:53:00
3:53 AM,41.0,9.0,27,29.45,10.0,NW,24.2,32.2,N/A,,Clear,320,2011-11-13 10:53:00
4:53 AM,39.0,10.9,32,29.50,10.0,NNW,15.0,-,N/A,,Clear,330,2011-11-13 11:53:00
5:53 AM,39.0,12.0,33,29.54,10.0,NW,9.2,-,N/A,,Clear,320,2011-11-13 12:53:00
6:53 AM,37.0,12.9,37,29.56,10.0,West,4.6,-,N/A,,Clear,280,2011-11-13 13:53:00
7:53 AM,37.9,17.1,43,29.58,10.0,SW,5.8,-,N/A,,Partly Cloudy,230,2011-11-13 14:53:00
8:53 AM,39.9,18.0,41,29.59,10.0,SW,5.8,-,N/A,,Clear,230,2011-11-13 15:53:00
9:53 AM,46.0,19.0,34,29.58,10.0,NW,9.2,-,N/A,,Partly Cloudy,310,2011-11-13 16:53:00
10:53 AM,50.0,24.1,36,29.57,10.0,WNW,8.1,-,N/A,,Clear,290,2011-11-13 17:53:00
11:53 AM,51.1,26.1,38,29.56,10.0,WNW,12.7,20.7,N/A,,Clear,300,2011-11-13 18:53:00
12:53 PM,51.1,27.0,39,29.54,10.0,WSW,9.2,-,N/A,,Clear,250,2011-11-13 19:53:00
1:53 PM,52.0,28.0,40,29.54,10.0,SW,8.1,-,N/A,,Clear,220,2011-11-13 20:53:00
2:53 PM,51.1,26.1,38,29.55,10.0,WSW,5.8,-,N/A,,Clear,240,2011-11-13 21:53:00
3:53 PM,50.0,24.1,36,29.56,10.0,South,5.8,-,N/A,,Scattered Clouds,190,2011-11-13 22:53:00
4:53 PM,45.0,26.1,48,29.58,10.0,Calm,Calm,-,N/A,,Mostly Cloudy,0,2011-11-13 23:53:00
5:53 PM,42.1,26.1,53,29.60,10.0,ENE,4.6,-,N/A,,Mostly Cloudy,70,2011-11-14 00:53:00
6:53 PM,41.0,26.1,55,29.62,10.0,Calm,Calm,-,N/A,,Scattered Clouds,0,2011-11-14 01:53:00
7:53 PM,37.0,25.0,62,29.63,10.0,NNE,3.5,-,N/A,,Partly Cloudy,30,2011-11-14 02:53:00
8:53 PM,37.0,26.1,65,29.64,10.0,NNE,9.2,-,N/A,,Overcast,20,2011-11-14 03:53:00
9:53 PM,46.0,32.0,58,29.65,10.0,NW,11.5,-,N/A,,Overcast,310,2011-11-14 04:53:00
10:53 PM,46.0,34.0,63,29.65,10.0,NW,10.4,-,0.00,,Overcast,320,2011-11-14 05:53:00
11:53 PM,43.0,32.0,65,29.64,10.0,SW,6.9,-,N/A,,Overcast,230,2011-11-14 06:53:00